TimeCDT,TemperatureF,Dew PointF,Humidity,Sea Level PressureIn,VisibilityMPH,Wind Direction,Wind SpeedMPH,Gust SpeedMPH,PrecipitationIn,Events,Conditions,WindDirDegrees,DateUTC
12:53 AM,70.0,66.0,87,30.01,10.0,South,3.5,-,N/A,,Clear,170,2013-10-04 05:53:00
1:53 AM,70.0,66.0,87,30.02,10.0,South,4.6,-,N/A,,Clear,180,2013-10-04 06:53:00
2:53 AM,70.0,66.0,87,30.02,10.0,South,5.8,-,N/A,,Clear,180,2013-10-04 07:53:00
3:53 AM,70.0,64.9,84,30.01,10.0,SSE,4.6,-,N/A,,Clear,160,2013-10-04 08:53:00
4:53 AM,69.1,64.9,87,30.02,10.0,South,5.8,-,N/A,,Partly Cloudy,170,2013-10-04 09:53:00
5:53 AM,69.1,64.9,87,30.03,10.0,South,4.6,-,N/A,,Clear,180,2013-10-04 10:53:00
6:53 AM,69.1,66.0,90,30.04,10.0,South,4.6,-,N/A,,Mostly Cloudy,170,2013-10-04 11:53:00
7:53 AM,70.0,66.9,90,30.05,10.0,SSE,4.6,-,N/A,,Clear,160,2013-10-04 12:53:00
8:53 AM,73.0,68.0,84,30.06,10.0,South,5.8,-,N/A,,Clear,180,2013-10-04 13:53:00
9:53 AM,78.1,69.1,74,30.07,10.0,South,6.9,-,N/A,,Overcast,180,2013-10-04 14:53:00
10:53 AM,80.1,70.0,71,30.06,10.0,SSW,10.4,-,N/A,,Overcast,200,2013-10-04 15:53:00
11:53 AM,82.9,70.0,65,30.06,10.0,SSW,6.9,-,N/A,,Overcast,200,2013-10-04 16:53:00
12:53 PM,82.9,70.0,65,30.04,10.0,SW,8.1,17.3,N/A,,Partly Cloudy,220,2013-10-04 17:53:00
1:53 PM,82.9,71.1,67,30.02,10.0,South,5.8,-,N/A,,Mostly Cloudy,180,2013-10-04 18:53:00
2:53 PM,86.0,70.0,59,30.00,10.0,SSW,10.4,-,0.00,,Mostly Cloudy,200,2013-10-04 19:53:00
3:53 PM,84.0,69.1,61,29.99,10.0,SSE,6.9,-,N/A,,Clear,160,2013-10-04 20:53:00
4:53 PM,82.9,70.0,65,29.99,10.0,SSE,10.4,-,N/A,,Partly Cloudy,160,2013-10-04 21:53:00
5:53 PM,80.1,70.0,71,29.99,10.0,South,8.1,-,N/A,,Partly Cloudy,170,2013-10-04 22:53:00
6:53 PM,77.0,70.0,79,30.00,10.0,Calm,Calm,-,N/A,,Partly Cloudy,0,2013-10-04 23:53:00
7:53 PM,73.9,71.1,91,30.00,10.0,South,3.5,-,N/A,,Clear,170,2013-10-05 00:53:00
8:53 PM,73.9,70.0,87,30.01,10.0,South,4.6,-,N/A,,Clear,180,2013-10-05 01:53:00
9:53 PM,73.9,70.0,87,30.02,10.0,South,3.5,-,N/A,,Scattered Clouds,170,2013-10-05 02:53:00
10:53 PM,73.9,70.0,87,30.02,10.0,South,3.5,-,N/A,,Partly Cloudy,180,2013-10-05 03:53:00
11:53 PM,73.9,70.0,87,30.02,10.0,SSE,4.6,-,N/A,,Overcast,160,2013-10-05 04:53:00